EW6767 Weather Reports


Display with metric or nautical units.
time (UTC)temp
F
wind
direction
speed
MPH
gust
MPH
rain 1hr
in
rain 24hr
in
rain mn
in
humidity
%
barometer
mb
20260507084543 39 89 0.0 0.0 0.00 0.00 0.00 93 1032.4
20260507083041 39 89 0.0 0.0 0.00 0.00 0.00 93 1032.2
20260507081542 39 89 0.0 0.0 0.00 0.00 0.00 93 1032.2
20260507080040 39 89 0.0 0.0 0.00 0.00 0.00 93 1032.1
20260507074537 40 89 0.0 0.0 0.00 0.09 0.00 93 1032.1
20260507073040 40 89 0.0 0.0 0.00 0.09 0.00 93 1032.1
20260507071538 40 89 0.0 0.0 0.00 0.09 0.00 93 1032.2
20260507070044 40 89 0.0 0.0 0.00 0.09 0.00 93 1032.1
20260507064541 40 89 0.0 0.0 0.00 0.14 0.00 93 1032.3
20260507063036 40 89 0.0 0.0 0.00 0.14 0.00 93 1032.3
20260507061532 41 89 0.0 0.0 0.00 0.14 0.00 93 1032.4
20260507060034 41 89 0.0 0.0 0.00 0.14 0.00 93 1032.3
20260507054528 42 89 0.0 0.0 0.00 0.27 0.00 93 1032.3
20260507053027 42 89 0.0 0.0 0.00 0.27 0.00 93 1032.4
20260507051525 42 89 0.0 0.0 0.00 0.27 0.00 92 1032.5
20260507050029 43 89 0.0 0.0 0.00 0.44 0.00 92 1032.6
20260507044519 43 89 0.0 0.0 0.00 0.44 0.00 92 1032.5
20260507043019 43 89 0.0 0.0 0.00 0.44 0.00 92 1032.3
20260507041518 44 89 0.0 0.0 0.00 0.44 0.00 91 1032.3
20260507040016 44 89 0.0 0.0 0.00 0.51 0.44 91 1032.2
20260507034519 45 89 0.0 0.0 0.00 0.51 0.44 91 1032.2
20260507033014 45 89 0.0 0.0 0.00 0.51 0.44 91 1032.2
20260507031514 46 89 0.0 0.0 0.00 0.51 0.44 91 1032.2
20260507030014 46 89 0.0 0.0 0.00 0.61 0.44 90 1032.3
20260507024513 46 89 0.0 0.0 0.00 0.61 0.44 89 1032.3
20260507023012 46 89 0.0 0.0 0.00 0.61 0.44 88 1032.4
20260507021513 47 89 0.0 0.0 0.00 0.61 0.44 87 1032.2
20260507020010 48 89 0.0 0.0 0.00 0.71 0.44 86 1031.9
20260507014510 49 89 0.0 0.0 0.00 0.71 0.44 84 1031.7
20260507013008 50 89 0.0 0.0 0.00 0.71 0.44 85 1031.7
20260507011518 51 89 0.0 0.0 0.00 0.71 0.44 85 1031.6
20260507010006 51 89 0.0 0.0 0.00 0.84 0.44 83 1031.6
20260507004503 52 89 0.0 0.0 0.00 0.84 0.44 81 1031.5
20260507003001 53 89 0.0 0.0 0.00 0.84 0.44 78 1031.0
20260507001502 54 89 0.0 0.0 0.00 0.84 0.44 75 1031.0
20260507000001 55 89 0.0 0.0 0.00 0.90 0.44 74 1030.8
20260506234607 56 89 0.0 0.0 0.00 0.90 0.44 71 1030.9
20260506233101 57 89 0.0 1.0 0.00 0.90 0.44 59 1030.5
20260506231600 57 156 0.0 1.0 0.00 0.90 0.44 57 1030.7
20260506230104 58 112 0.0 2.0 0.00 0.90 0.44 54 1030.8
20260506224602 58 111 0.0 2.0 0.00 1.01 0.44 53 1030.7
20260506223059 58 129 0.0 1.0 0.00 1.01 0.44 52 1031.2
20260506221558 58 135 0.0 1.0 0.00 1.01 0.44 52 1031.0
20260506220101 58 217 0.0 2.0 0.00 1.01 0.44 52 1031.2
20260506214558 59 94 0.0 2.0 0.00 1.08 0.44 54 1031.0
20260506213054 59 221 0.0 2.0 0.00 1.08 0.44 54 1030.8
20260506211553 59 108 0.0 3.0 0.00 1.08 0.44 53 1030.7
20260506210053 59 63 0.0 2.0 0.00 1.08 0.44 52 1030.6
20260506204552 59 172 0.0 2.0 0.00 1.13 0.44 53 1030.6
20260506203051 59 75 0.0 2.0 0.00 1.13 0.44 50 1030.7
20260506201555 59 83 0.0 2.0 0.00 1.13 0.44 50 1030.6
20260506200051 60 23 0.0 3.0 0.00 1.13 0.44 53 1030.6
20260506194550 60 167 0.0 4.0 0.00 1.20 0.44 51 1030.5
20260506193049 60 150 0.0 4.0 0.00 1.20 0.44 50 1030.3
20260506191550 60 237 0.0 6.0 0.00 1.20 0.44 52 1030.3
20260506190052 60 86 1.0 5.0 0.00 1.20 0.44 53 1030.3
20260506184551 60 86 1.0 6.0 0.00 1.20 0.44 49 1030.3
20260506183049 62 231 0.0 5.0 0.00 1.20 0.44 50 1030.2
20260506181546 62 37 1.0 4.0 0.00 1.20 0.44 52 1030.1
20260506180047 60 63 1.0 6.0 0.00 1.20 0.44 54 1030.3
20260506174544 60 4 0.0 5.0 0.00 1.20 0.44 54 1030.6
20260506173120 61 67 1.0 5.0 0.00 1.20 0.44 55 1030.4
20260506171542 61 129 0.0 4.0 0.00 1.20 0.44 52 1030.6
20260506170041 61 81 1.0 3.0 0.00 1.20 0.44 55 1030.6
20260506164538 60 146 1.0 5.0 0.00 1.20 0.44 54 1030.7
20260506163038 59 72 1.0 4.0 0.00 1.20 0.44 59 1030.4
20260506161533 59 47 0.0 4.0 0.00 1.20 0.44 59 1030.4
20260506160031 58 195 1.0 5.0 0.00 1.20 0.44 60 1030.7
20260506154528 58 202 1.0 4.0 0.00 1.20 0.44 62 1030.5
20260506153024 56 65 0.0 5.0 0.00 1.20 0.44 63 1030.6
20260506151525 55 68 0.0 5.0 0.00 1.20 0.44 63 1030.3
20260506150018 55 135 0.0 5.0 0.00 1.20 0.44 66 1029.7
20260506144515 55 63 1.0 4.0 0.00 1.20 0.44 68 1029.5
20260506143022 53 64 0.0 2.0 0.00 1.20 0.44 74 1029.5
20260506141507 52 164 0.0 4.0 0.00 1.20 0.44 79 1029.5
20260506140005 50 245 0.0 3.0 0.00 1.20 0.44 84 1029.5
20260506134504 49 60 0.0 4.0 0.00 1.20 0.44 87 1029.7
20260506133100 48 82 0.0 1.0 0.00 1.20 0.44 93 1029.4
20260506131602 47 141 0.0 2.0 0.00 1.20 0.44 93 1028.9
20260506130131 47 182 1.0 4.0 0.00 1.20 0.44 93 1029.1
20260506124600 46 54 0.0 3.0 0.00 1.20 0.44 93 1028.7
20260506123054 46 163 0.0 2.0 0.00 1.20 0.44 94 1028.6
20260506121553 45 95 0.0 2.0 0.00 1.20 0.44 94 1028.6
20260506120051 45 67 0.0 2.0 0.00 1.20 0.44 94 1028.1
20260506114550 45 56 0.0 1.0 0.00 1.20 0.44 94 1028.0
20260506113053 44 61 0.0 2.0 0.00 1.20 0.44 94 1027.2
20260506111547 44 49 0.0 1.0 0.00 1.20 0.44 94 1027.3
20260506110054 44 89 0.0 1.0 0.00 1.20 0.44 94 1027.5
20260506104551 44 124 0.0 1.0 0.00 1.25 0.44 94 1027.0
20260506103048 44 245 0.0 4.0 0.00 1.25 0.44 94 1026.2
20260506101551 44 85 0.0 2.0 0.00 1.25 0.44 94 1025.8
20260506100058 44 81 0.0 2.0 0.00 1.25 0.44 94 1026.5
20260506094538 44 205 0.0 2.0 0.00 1.35 0.44 94 1026.4
20260506093041 44 165 0.0 1.0 0.00 1.35 0.44 94 1025.6
20260506091537 44 226 0.0 2.0 0.00 1.35 0.44 94 1025.3
20260506090033 45 63 0.0 1.0 0.00 1.35 0.44 94 1025.5